IRIDIUM 33 DEB, 46734

Orbit data source: Space-Track

IRIDIUM 33 DEB, 46734 is space debris in LEO originally from a launch on Sun, 14 Sep 1997 UTC launched from the Tyuratam Missile And Space Complex (TTMTR). The debris from Iridium 33, an American commercial communications satellite, has been tracked extensively since its accidental collision with the defunct Russian satellite Cosmos 2251 in 2009. This event, occurring at high speed in low Earth orbit (LEO), generated thousands of pieces of space debris, significantly increasing the risk of further collisions. The Iridium 33 debris cloud has impacted space traffic management and orbital debris mitigation strategies, making it a subject of ongoing study in space situational awareness.

Loading next visibility...
Identifier
46734, 1997-051ABR
Orbit
LEO
Country
Flag of USUS
Related business
Manufacturer
Unknown
Mission
Spacecraft
Bus & Motor
Unknown
Mass
Unknown
Launch date (UTC)
1997-09-14 (28 years ago)
Launch vehicle
Unknown
Launch site
Tyuratam Missile And Space Complex (TTMTR)
Object type
Payload
Rocket body
Debris
Shape & HBR
Unknown shape, 0.1 m
Radar Cross Section
Small (<0.1 m²)

Expand to show TLE details & history
Last TLE update: 5 days ago

TLE from 5 days ago
0 IRIDIUM 33 DEB
1 46734U 97051ABR 25350.30319106  .00002503  00000-0  75238-3 0  9992
2 46734  86.2633   1.2995 0038122 323.6514  53.8246 14.41911222630622
Epoch: 2025-12-16T07:16Z
TLE epoch observation values (Epoch: 2025-12-16T07:16:35.707Z)
Latitude
17.77983°
Longitude
168.15502°
Altitude
738.694 km
Speed
7.495 km/s
True Right ascension
00h 09m 58s
True Declination
17° 40' 47"
Sunlit
Object was in daylight at epoch
Visualization orbit readout
Latitude
Unknown
Longitude
Unknown
Altitude
Unknown
Speed
Unknown
Apparent Right ascension
Unknown
Apparent Declination
Unknown
Sunlit
N/A
Visualization observer readout
Local Sidereal Time
13:06:04
Azimuth
Unknown
Elevation
Unknown
Doppler factor
Unknown
Orbital elements
Apogee altitude
776.318 km
Perigee altitude
721.976 km
Semi-major axis
7,127.284 km
Eccentricity
0.00381
Inclination
86.2633°
RAAN
1.2995°
Arg. of periapsis
323.6514°
True anomaly
54.17822°
Mean anomaly
53.8246°
Eccentric anomaly
54.00131°
Mean motion
3.60709 °/min
Orbital period
99.8 mins
BSTAR
0.00075238
Loading maneuver chart data...
Computing Atmospheric mass density...

Documentation

Showing up to 5 results
|